Probability
0 0 0 0 0 0 0 0 0 0 0 0 0 0 0 0 0 0 0 0 0 0 0 0 0 0 0 0 0 0 0 0 0 0 0 0 0 0 0 0 0 0 0 0
0 0 0 0 0 0 0 0 0 0 0 0 0 0 0 0 0 0 0 0 0 0 0 0 0 0 0 0 0 0 0 0 0 0 0 0 0 0 0 0 0 0 0 0
0 0 0 0 0 0 0 0 0 0 0 0 0 0 0 0 0 0 0 0 0 0 0 0 0 0 0 0 0 0 0 0 0 0 0 0 0 0 0 0 0 0 0 0
0 0 0 0 0 0 0 0 0 0 0 0 0 0 0 0 0 0 0 0 0 0 0 0 0 0 0 0 0 0 0 0 0 0 0 0 0 0 0 0 0 0 0 0
0 0 0 0 0 0 0 0 0 0 0 0 0 0 0 0 0 0 0 0 0 0 0 0 0 0 0 0 0 0 0 0 0 0 0 0 0 0 0 0 0 0 0 0
0 0 0 0 0 0 0 0 0 0 0 0 0 0 0 0 0 0 0 0 0 0 0 0 0 0 0 0 0 0 0 0 0 0 0 0 0 0 0 0 0 0 0 0
0 0 0 0 0 0 0 0 0 0 0 0 0 0 0 0 0 0 0 0 0 0 0 0 0 0 0 0 0 0 0 0 0 0 0 0 0 0 0 0 0 0 0 0
0 0 0 0 0 0 0 0 0 0 0 0 0 0 0 0 0 0 0 0 0 0 0 0 0 0 0 0 0 0 0 0 0 0 0 0 0 0 0 0 0 0 0 0
0 0 0 0 0 0 0 0 0 0 0 0 0 0 0 0 0 0 0 0 0 0 0 0 0 0 0 0 0 0 0 0 0 0 0 0 0 0 0 0 0 0 0 0
0 0 0 0 0 0 0 0 0 0 0 0 0 0 0 0 0 0 0 0 0 0 0 0 0 0 0 0 0 0 0 0 0 0 0 0 0 0 0 0 0 0 0 0
0 0 0 0 0 0 0 0 0 0 0 0 0 0 0 0 0 0 0 0 0 0 0 0 0 0 0 0 0 0 0 0 0 0 0 0 0 0 0 0 0 0 0 0
0 0 0 0 0 0 0 0 0 0 0 0 0 0 0 0 0 0 0 0 0 0 0 0 0 0 0 0 0 0 0 0 0 0 0 0 0 0 0 0 0 0 0 0
0 0 0 0 0 0 0 0 0 0 0 0 0 0 0 0 0 0 0 0 0 0 0 0 0 0 0 0 0 0 0 0 0 0 0 0 0 0 0 0 0 0 0 0
0 0 0 0 0 0 0 0 0 0 0 0 0 0 0 0 0 0 0 0 0 0 0 0 0 0 0 0 0 0 0 0 0 0 0 0 0 0 0 0 0 0 0 0
0 0 0 0 0 0 0 0 0 0 0 0 0 0 0 0 0 0 0 0 0 0 0 0 0 0 0 0 0 0 0 0 0 0 0 0 0 0 0 0 0 0 0 0
0 0 0 0 0 0 0 0 0 0 0 0 0 0 0 0 0 0 0 0 0 0 0 0 0 0 0 0 0 0 0 0 0 0 0 0 0 0 0 0 0 0 0 0
0 0 0 0 0 0 0 0 0 0 0 0 0 0 0 0 0 0 0 0 0 0 0 0 0 0 0 0 0 0 0 0 0 0 0 0 0 0 0 0 0 0 0 0
0 0 0 0 0 0 0 0 0 0 0 0 0 0 0 0 0 0 0 0 0 0 0 0 0 0 0 0 0 0 0 0 0 0 0 0 0 0 0 0 0 0 0 0
0 0 0 0 0 0 0 0 0 0 0 0 0 0 0 0 0 0 0 0 0 0 0 0 0 0 0 0 0 0 0 0 0 0 0 0 0 0 0 0 0 0 0 0
0 0 0 0 0 0 0 0 0 0 0 0 0 0 0 0 0 0 0 0 0 0 0 0 0 0 0 0 0 0 0 0 0 0 0 0 0 0 0 0 0 0 0 0
0 0 0 0 0 0 0 0 0 0 0 0 0 0 0 0 0 0 0 0 0 0 0 0 0 0 0 0 0 0 0 0 0 0 0 0 0 0 0 0 0 0 0 0
0 0 0 0 0 0 0 0 0 0 0 0 0 0 0 0 0 0 0 0 0 0 0 0 0 0 0 0 0 0 0 0 0 0 0 0 0 0 0 0 0 0 0 0
0 0 0 0 0 0 0 0 0 0 0 0 0 0 0 0 0 0 0 0 0 0 0 0 0 0 0 0 0 0 0 0 0 0 0 0 0 0 0 0 0 0 0 0
0 0 0 0 0 0 0 0 0 0 0 0 0 0 0 0 0 0 0 0 0 0 0 0 0 0 0 0 0 0 0 0 0 0 0 0 0 0 0 0 0 0 0 0
0 0 0 0 0 0 0 0 0 0 0 0 0 0 0 0 0 0 0 0 0 0 0 0 0 0 0 0 0 0 0 0 0 0 0 0 0 0 0 0 0 0 0 0
0 0 0 0 0 0 0 0 0 0 0 0 0 0 0 0 0 0 0 0 0 0 0 0 0 0 0 0 0 0 0 0 0 0 0 0 0 0 0 0 0 0 0 0
0 0 0 0 0 0 0 0 0 0 0 0 0 0 0 0 0 0 0 0 0 0 0 0 0 0 0 0 0 0 0 0 0 0 0 0 0 0 0 0 0 0 0 0
Wind_Speed
4 3 2 5 6 6 7 7 8 8 8 12 7 6 5 3 2 2 3 3 4 4 3 3 3 2 2 2 2 2 3 2 1 1 1 1 1 0 1 1 0 0 1 1
3 1 3 6 8 8 9 7 8 7 12 11 6 3 4 4 4 5 5 5 5 4 4 4 4 4 3 3 2 2 3 2 1 1 1 1 1 1 1 1 1 1 1 0
3 4 4 9 10 11 8 9 9 12 13 4 3 5 5 5 5 7 7 5 5 5 5 5 5 5 5 4 3 3 2 2 2 2 1 1 1 1 1 0 1 1 0 0
0 3 6 9 3 9 8 9 11 10 8 6 7 5 4 5 7 7 7 6 6 5 5 4 4 4 3 3 3 3 3 2 2 2 2 1 1 1 1 1 1 0 0 1
3 2 11 10 4 7 7 9 11 14 12 8 2 3 6 6 7 8 7 5 5 5 4 4 4 4 4 4 4 3 3 3 3 3 2 2 2 2 1 1 1 0 0 0
4 3 9 7 3 5 4 7 7 11 11 7 4 2 6 2 3 4 3 3 3 3 3 3 3 4 5 4 4 5 5 4 3 3 3 3 2 2 1 1 1 1 0 0
5 6 13 8 4 6 4 8 3 8 8 8 9 7 3 1 1 2 2 2 2 3 3 4 4 5 5 4 5 4 3 3 3 3 3 3 2 2 2 1 1 1 0 1
7 6 14 6 9 11 9 2 2 5 6 8 7 4 3 2 2 2 2 1 2 3 3 2 4 5 5 5 4 3 3 3 3 3 3 2 3 2 2 2 2 1 1 2
14 13 5 9 10 8 3 3 4 4 5 6 5 5 4 3 3 3 3 3 3 3 3 2 3 5 6 4 3 4 4 3 3 2 2 3 3 3 2 2 2 2 1 2
7 12 9 9 9 7 6 6 5 4 4 5 6 5 5 4 4 3 3 3 3 4 4 3 3 4 4 3 4 4 4 3 3 3 2 2 2 2 3 3 3 3 3 3
9 10 7 8 10 11 8 6 5 5 5 6 6 6 5 5 5 4 3 3 3 4 5 4 3 3 3 4 5 4 4 3 3 3 3 3 2 3 4 4 4 4 4 3
12 9 7 6 4 4 6 7 7 5 4 4 6 6 5 5 4 4 3 3 3 4 4 4 4 4 3 4 5 5 4 4 3 3 3 3 2 2 4 4 4 5 5 4
7 4 6 5 3 3 5 5 5 5 5 4 4 4 4 4 3 3 3 4 5 5 5 4 4 4 4 4 4 5 5 4 3 3 3 3 3 3 2 2 4 6 6 7
6 3 5 6 6 4 3 3 2 2 3 3 3 3 3 3 3 4 5 5 4 4 4 4 4 5 4 4 4 5 4 4 4 4 4 3 3 3 3 3 3 3 5 7
9 9 8 4 3 2 1 1 1 3 3 3 2 3 4 4 5 5 4 3 2 3 4 4 5 5 4 5 5 5 4 4 3 3 3 3 3 3 3 3 4 3 3 4
6 5 6 6 7 6 3 3 4 6 4 4 4 5 5 5 5 4 3 3 4 5 5 5 6 4 4 5 5 4 4 5 4 3 3 3 3 3 4 4 4 4 4 4
4 6 7 7 8 7 6 6 6 6 5 5 6 5 3 3 3 4 4 4 4 4 4 5 5 3 5 6 6 4 4 4 5 4 4 4 4 4 4 4 4 5 5 5
8 7 5 5 5 6 6 5 5 5 5 5 3 3 4 5 6 6 4 2 2 3 4 4 3 3 4 5 5 4 4 4 4 4 4 4 4 4 4 5 5 6 5 4
5 5 5 5 4 4 4 5 5 4 3 2 3 4 5 5 5 4 2 3 4 5 4 3 4 3 4 5 4 3 4 4 4 4 4 4 4 4 4 5 5 5 5 4
3 3 3 3 2 3 4 3 3 3 3 2 3 3 4 4 3 3 3 5 5 4 2 2 3 3 3 4 4 3 4 5 5 4 4 4 4 5 5 5 5 5 5 5
3 3 3 3 3 2 3 3 2 3 2 2 3 4 4 3 2 2 3 4 4 2 2 3 3 3 3 3 4 3 4 5 5 5 5 5 5 5 5 5 5 5 5 5
2 2 2 2 2 2 2 1 1 2 2 2 3 3 2 3 3 3 4 4 2 2 2 2 3 3 3 4 3 4 4 5 5 4 5 5 5 5 5 5 5 5 5 5
2 2 2 2 2 2 2 1 1 2 2 3 3 3 4 3 3 3 4 3 2 2 2 2 3 4 4 3 3 4 4 4 5 5 5 5 5 5 5 5 5 5 5 5
2 2 2 2 1 1 2 2 2 2 2 2 2 3 3 2 3 3 2 2 2 3 2 3 4 4 4 3 3 3 4 4 4 4 4 4 4 4 5 5 5 5 5 5
2 2 2 1 1 2 2 2 2 2 2 2 2 2 2 2 3 2 2 2 3 2 2 3 4 4 3 3 3 3 4 4 4 4 4 4 4 4 4 5 5 5 5 5
2 1 1 1 1 2 2 1 2 2 2 2 2 2 2 2 2 1 1 2 2 2 2 2 2 3 3 3 3 3 3 3 3 3 4 4 4 4 4 4 5 5 5 5
2 2 2 2 2 2 2 2 2 2 2 3 3 2 2 2 1 1 2 1 1 2 2 2 2 2 2 3 3 3 3 3 3 3 3 3 3 4 4 5 4 4 4 5
Wind_Direction
261 275 234 233 222 201 207 209 211 239 242 261 262 250 255 248 231 221 227 218 212 208 207 198 194 193 185 186 173 158 146 144 174 170 146 129 116 110 92 74 68 69 60 46
292 287 264 264 244 218 226 229 237 262 268 260 266 249 252 244 224 231 233 224 218 212 205 202 200 196 190 192 183 157 156 171 169 143 127 132 132 102 88 79 71 86 70 23
277 318 343 276 226 194 208 214 198 222 242 256 258 244 240 235 226 229 233 225 216 212 209 207 201 191 193 194 165 156 166 172 166 157 158 167 133 107 115 133 100 92 86 18
348 27 256 249 181 183 207 233 215 234 249 241 243 260 253 229 224 236 232 225 218 210 205 204 191 182 180 160 157 165 173 183 179 168 176 161 138 151 167 129 120 122 56 11
129 247 277 288 215 174 192 261 219 224 245 253 260 326 285 239 219 228 229 223 214 204 196 184 183 178 165 163 163 171 187 197 193 181 178 169 175 187 170 137 136 129 71 20
143 198 246 253 174 165 138 281 230 204 224 222 152 223 263 227 196 214 220 211 200 180 170 179 184 164 164 176 176 195 201 198 187 178 178 185 194 187 157 150 173 161 160 341
181 226 260 249 153 136 169 246 217 194 205 186 192 216 231 156 175 192 202 201 172 165 177 189 170 160 175 184 202 206 182 168 172 175 180 186 178 164 152 152 143 154 225 287
165 208 254 189 150 188 216 235 192 195 195 193 212 236 241 228 219 207 210 199 168 170 191 184 169 169 185 204 203 167 160 169 178 175 172 168 163 166 159 161 171 204 245 289
194 216 242 177 201 219 210 225 223 206 202 192 205 226 230 226 223 222 214 207 187 181 188 194 187 183 199 207 164 156 161 175 178 169 169 166 167 171 169 176 190 213 225 257
244 257 246 232 242 247 231 230 234 221 206 193 209 223 230 229 223 220 216 206 191 179 192 213 205 200 205 185 162 160 173 183 176 170 174 172 175 177 184 193 202 214 225 244
246 267 287 261 231 238 239 237 241 236 217 212 211 226 225 226 225 219 215 204 190 196 207 217 203 204 197 177 161 167 176 181 181 183 185 186 193 202 205 212 207 210 220 220
224 221 211 242 240 223 218 231 230 225 232 224 211 223 225 230 228 219 216 206 206 212 214 215 199 204 197 181 171 171 181 186 188 189 191 191 195 230 240 233 236 235 238 234
231 238 228 258 271 229 223 236 226 213 216 228 229 221 219 229 228 218 220 218 220 221 219 209 201 207 201 186 180 185 193 192 189 191 194 196 198 208 240 258 248 250 251 251
242 250 261 252 251 248 239 249 220 216 229 227 228 222 217 226 228 222 228 228 227 220 215 207 206 214 199 184 185 195 198 197 193 196 198 201 205 210 215 225 251 264 259 258
236 223 236 261 276 273 259 225 218 242 246 250 226 218 218 223 232 236 233 220 209 215 220 210 214 220 188 183 188 195 196 201 199 198 199 202 203 207 215 225 238 255 273 276
239 230 239 249 255 254 243 231 232 245 243 242 237 234 232 232 240 242 223 193 196 220 223 217 224 218 182 183 188 195 204 206 199 199 201 204 204 208 216 223 232 239 247 253
217 237 232 240 244 245 238 232 231 239 239 237 240 240 234 235 245 243 231 217 220 230 228 223 227 201 183 186 189 195 197 201 198 203 210 211 212 215 217 219 228 238 245 240
224 239 234 233 238 241 246 242 238 237 238 243 243 230 223 223 234 241 235 218 227 250 241 233 221 194 191 192 192 193 193 198 200 208 212 215 219 221 222 225 230 239 250 249
233 244 250 249 250 243 244 245 246 247 247 231 223 228 230 234 239 241 209 199 221 243 250 226 212 192 198 201 190 190 193 199 206 213 215 217 220 224 226 231 236 239 242 239
253 253 253 257 258 246 253 262 256 250 244 222 223 231 241 244 239 225 209 220 224 232 216 186 195 192 197 203 198 195 196 201 208 214 216 221 226 228 228 231 236 240 240 238
269 262 256 253 260 261 257 262 257 261 260 214 211 226 240 251 233 211 214 244 252 229 201 191 195 201 196 197 196 199 202 206 211 214 215 220 226 231 233 234 236 238 239 241
281 275 271 270 265 277 283 272 258 258 251 236 231 231 236 242 234 232 232 242 255 202 199 208 206 201 198 193 196 202 209 213 215 216 218 220 224 230 234 235 238 240 240 241
292 289 285 279 270 281 311 305 268 249 241 239 232 227 232 238 225 226 253 250 242 225 219 222 222 207 194 189 200 206 211 215 218 219 222 222 225 228 233 236 239 239 241 243
317 316 310 316 343 337 310 308 295 274 264 260 253 244 237 247 252 241 264 265 243 235 234 233 222 208 191 195 202 210 216 220 224 225 225 225 228 231 234 236 240 241 240 240
326 336 353 356 324 293 296 310 314 308 302 292 289 282 267 249 249 262 263 251 250 244 248 237 226 214 202 206 208 215 222 226 227 227 227 228 229 231 235 236 237 240 242 243
329 313 298 287 293 307 312 310 300 299 299 297 299 296 293 289 275 273 271 255 242 243 244 237 222 215 217 216 216 220 226 229 229 232 236 239 239 239 241 242 240 241 243 245
338 338 338 337 331 324 313 300 292 287 278 275 289 292 294 293 285 278 275 269 256 248 247 242 228 223 222 220 222 224 226 227 228 232 237 240 241 243 244 244 246 245 244 244